Weather Roundup
Issued by NWS

Home | Current Version | Previous Version | Text Only | Print | Product List | Glossary On
Versions: 1 2 3 4 5 6 7 8 9 10 11 12 13 14 15 16 17 18 19 20 21 22 23 24 25 26 27 28 29 30 31 32 33 34 35 36 37 38 39 40 41 42 43 44 45 46 47 48 49 50
980
NZUS93 KARX 230959
HRRWXR

CURRENT HOURLY OBSERVATIONS ACROSS
MUCH OF THE UPPER MISSISSIPPI VALLEY
NATIONAL WEATHER SERVICE LA CROSSE WI
500 AM CDT SAT JUL 23 2016


...SOUTHEAST MINNESOTA...


CITY           SKY/WX    TMP DP  RH WIND       PRES   REMARKS
ROCHESTER      CLOUDY    76  76 100 S3        29.99F FOG
ROCHESTER/MAYO PTSUNNY   76  76 100 SE3       29.99R
WINONA         CLEAR     73  72  94 CALM      29.97S
AUSTIN         MOCLDY    75  73  94 SE3       29.97F
ALBERT LEA     CLOUDY    79  75  89 E5        29.96S
DODGE CENTER   CLOUDY    75  73  94 SE6       29.99R FOG
PRESTON        CLOUDY    75  73  94 SE3       30.00F FOG
OWATONNA       MOCLDY    77  75  94 E3        29.97S
FARIBAULT      CLOUDY    75  73  94 E5        29.97S
$$

...ELSEWHERE IN MINNESOTA...


CITY           SKY/WX    TMP DP  RH WIND       PRES   REMARKS
MINNEAPOLIS    PTCLDY    77  66  68 E5        29.96S
INTNL FALLS    CLOUDY    56  55  97 CALM      29.99F
DULUTH         MOCLDY    64  59  83 CALM      30.01F
RED WING       CLOUDY    70  66  88 CALM      29.96S
REDWOOD FALLS  CLOUDY    73  71  93 E8        29.92S
MANKATO        CLOUDY    79  73  83 SE8       29.94F
WORTHINGTON    CLOUDY    78  77  96 E7        29.91F
FAIRMONT       CLOUDY    77  59  53 SE6       29.91F
$$

...SOUTHWEST WISCONSIN...


CITY           SKY/WX    TMP DP  RH WIND       PRES   REMARKS
LA CROSSE      PTCLDY    75  73  93 SE6       29.96S
PRAIRIE DU CHI CLOUDY    75  73  94 CALM      29.97S
BOSCOBEL       FOG       77  76  96 CALM      29.98S VSB 1/4
LONE ROCK      NOT AVBL
PLATTEVILLE    CLOUDY    76  76 100 CALM      30.00S
FORT MC COY    CLEAR     63  63 100 CALM      29.98F
CAMP DOUGLAS   FOG       61  61 100 CALM      29.99S VSB 1/2
MAUSTON-NEW LI FOG       67  67 100 CALM      29.99R VSB 3/4
VIROQUA        CLOUDY    73  73 100 CALM      30.00F VSB 1/4
WIS DELLS      NOT AVBL
$$

...ELSEWHERE IN WISCONSIN...


CITY           SKY/WX    TMP DP  RH WIND       PRES   REMARKS
MILWAUKEE      PTCLDY    75  71  87 CALM      29.97S
MADISON        FOG       73  72  96 CALM      29.98S VSB 1
GREEN BAY      PTCLDY    67  67 100 CALM      29.98R
EAU CLAIRE     NOT AVBL
BLACK RVR FLS  FOG       62  62 100 CALM      29.98S VSB 1/2
MEDFORD        PTCLDY    63  63 100 CALM      30.02S FOG
WAUSAU         MOCLDY    67  65  93 CALM      30.01R
WIS RAPIDS     CLEAR     64  62  93 SW3       30.02R FOG
MARSHFIELD     PTCLDY    66  63  90 NE5       30.00S
RICE LAKE      CLEAR     66  65  96 CALM      30.01S
$$

...NORTHEAST IOWA...


CITY           SKY/WX    TMP DP  RH WIND       PRES   REMARKS
WATERLOO       MOCLDY    77  75  93 E6        29.94S
DUBUQUE        CLOUDY    77  75  93 CALM      29.99F
DECORAH        CLOUDY    77  77 100 CALM      29.98S
MASON CITY     CLOUDY    76  75  97 E6        29.97S
CHARLES CITY   MOCLDY    77  77 100 E5        29.97F FOG
OELWEIN        CLOUDY    75  75 100 SE5       29.99R FOG
$$

...ELSEWHERE IN IOWA...


CITY           SKY/WX    TMP DP  RH WIND       PRES   REMARKS
DES MOINES     CLOUDY    80  76  87 S8        29.91R
IOWA CITY      CLEAR     76  75  97 CALM      29.97F
FORT DODGE     PTCLDY    79  75  89 SE3       29.92F
MARSHALLTOWN   CLOUDY    76  76 100 SE8       29.92F
CEDAR RAPIDS   CLEAR     76  76 100 E5        29.96S
$$

...NORTHERN ILLINOIS...


CITY           SKY/WX    TMP DP  RH WIND       PRES   REMARKS
CHICAGO-OHARE  MOCLDY    78  75  90 W3        29.97F
CHICAGO-MIDWAY CLOUDY    81  75  82 CALM      29.97F
MOLINE         CLEAR     75  72  90 CALM      29.97F
ROCKFORD       PTCLDY    76  73  91 CALM      30.00R
PEORIA         CLEAR     76  75  97 CALM      29.98F
$$

NOTE: "FAIR" INDICATES FEW OR NO CLOUDS BELOW 12,000 FEET WITH NO
SIGNIFICANT WEATHER AND/OR OBSTRUCTIONS TO VISIBILITY. WIND
SPEEDS ARE IN MILES-PER-HOUR.




USA.gov is the U.S. government's official web portal to all federal, state and local government web resources and services.